星链-4284 (STARLINK-4284 )

导读

STARLINK-4284是美国SpaceX公司星链星座的低轨通信卫星,于2022年7月7日发射升空,属于星链全球卫星互联网组网计划的组成部分。它运行在近地轨道,配备霍尔推进系统与自主避撞功能,旨在为全球提供高速低延迟宽带通信,填补偏远地区网络覆盖空白。星链星座计划部署数万颗卫星,该卫星服役期满后会主动脱轨再入大气层烧毁,减少太空碎片残留。

基本信息
目录编号:
53023
目录名称:
STARLINK-4284
国际标识:
2022-076AP
轨道中心:
EARTH
卫星名称:
星链-4284
卫星全名:
星链-4284 (STARLINK-4284 )
卫星状态:
在轨 (已飞行1520 天)
发射日期:
2022-07-07 UTC
国别 :
美国 (US)
星等 :
--
轨道信息
数据来源 国际轨道数据
星历时间: 2026-09-04T00:39:32+0800
23小时前
查看轨道信息
半长轴: 6837.874km
偏心率: 0.0001175
轨道倾角: 53.162°
近地点辐角 85.874°
升交点赤经 0.046°
平近点角 274.240°
近地点: 458.933km
远地点: 460.541km
周期: 93.787分钟
每日圈数: 15.353986
详细信息
固有亮度:
5
最大亮度:
2.5
卫星平台:
Starlink v1.5
覆盖范围:
全球
运营商:
太空探索技术公司
运营商所在国:
美国
制造商(研发单位):
太空探索技术公司
制造商所在国:
美国
使用方式:
暂无
卫星简介
星链(Starlink)计划是由太空探索技术公司(SpaceX)提出的一个巨型低轨卫星互联网星座项目,计划在2019年至2024年间在太空搭建由约1.2万颗卫星组成的“星链”网络,其中1584颗将部署在地球上空550千米处的近地轨道,并从2020年开始工作。该卫星仍在工作。
2D轨道图
3D轨道图
轨道高度分析图
轨道倾角分析图
轨道综合分析图
查看轨道综合分析图
交会数据列表
事件ID 空间交会对象 最接近时刻(TCA) 交会距离 交会风险概率(CRP) 交会风险指数(CRI) 操作
CDM_260827-185105-302306-370921
2026-08-27T
18:51:12+0000
1.802 km
极远距离
2.971089E-6 低风险 0.44
CDM_260906-022805-302306-585521
2026-09-06T
02:28:57+0000
2.362 km
极远距离
1.74178E-6 低风险 0.4
CDM_260904-220303-892205-302322
2026-09-04T
22:03:57+0000
2.277 km
极远距离
1.362197E-6 低风险 0.38
CDM_260903-072405-302305-383121
2026-09-03T
07:24:52+0000
2.925 km
极远距离
1.199879E-6 低风险 0.37
CDM_260906-021805-302306-475821
2026-09-06T
02:18:07+0000
2.879 km
极远距离
1.19956E-6 低风险 0.37
CDM_260906-060905-302306-370321
2026-09-06T
06:09:22+0000
2.922 km
极远距离
1.115197E-6 低风险 0.36
CDM_260906-083005-302306-370321
2026-09-06T
08:30:01+0000
2.966 km
极远距离
1.094754E-6 低风险 0.36
CDM_260905-103205-302306-474021
2026-09-05T
10:32:37+0000
2.827 km
极远距离
9.308049E-7 极低风险 0.34